Regional Weather Roundup
Issued by NWS Columbia, SC

Home | Current Version | Previous Version | Text Only | Print | Product List | Glossary On
Versions: 1 2 3 4 5 6 7 8 9 10 11 12 13 14 15 16 17 18 19 20 21 22 23 24 25 26 27 28 29 30 31 32 33 34 35 36 37 38 39 40 41 42 43 44 45 46 47 48 49 50
000
ASUS42 KCAE 071810
RWRCAE
REGIONAL WEATHER ROUNDUP
NATIONAL WEATHER SERVICE COLUMBIA SC
100 PM EST SUN FEB 07 2016

NOTE: "FAIR" INDICATES FEW OR NO CLOUDS BELOW 12,000 FEET WITH NO
SIGNIFICANT WEATHER AND/OR OBSTRUCTIONS TO VISIBILITY.

NOT ALL STATIONS ARE QUALITY CONTROLLED BY THE NATIONAL
WEATHER SERVICE. USE DATA WITH CAUTION...ESPECIALLY
DEWPOINT OBSERVATIONS.

SCZ001>056-GAZ040-063>065-077-071900-
...UPSTATE SOUTH CAROLINA...

CITY           SKY/WX    TMP DP  RH WIND       PRES   REMARKS
ANDERSON       SUNNY     54  21  27 N8        30.05F
6HR MIN TEMP:  29; 6HR MAX TEMP:  55;

LIBERTY        CLEAR     55  19  23 NW9G20    30.04F
6HR MIN TEMP:  13; 6HR MAX TEMP:  85;

SPARTANBURG    SUNNY     52  19  28 NE12G23   30.04F
CLEMSON        SUNNY     57  22  25 VRB5      30.06F
6HR MIN TEMP:  32; 6HR MAX TEMP:  57;

GREENVILLE     SUNNY     54  18  24 N10       30.05F
6HR MIN TEMP:  37; 6HR MAX TEMP:  54;

GREENWOOD      SUNNY     54  22  28 N10       30.05F
6HR MIN TEMP:  35; 6HR MAX TEMP:  54;

GREER          SUNNY     53  20  27 N12G20    30.03F
6HR MIN TEMP:  33; 6HR MAX TEMP:  54;

ROCK HILL      CLOUDY    48  23  37 N15G24    30.03F
6HR MIN TEMP:  38; 6HR MAX TEMP:  48;

LAURENS        CLEAR     52  25  35 N12G18    30.04F


...CENTRAL SOUTH CAROLINA...

CITY           SKY/WX    TMP DP  RH WIND       PRES   REMARKS
COLUMBIA APT   CLOUDY    51  20  29 N13G21    30.00F
6HR MIN TEMP:  43; 6HR MAX TEMP:  51;

COLUMBIA OWENS CLOUDY    50  22  33 N9        30.01F
6HR MIN TEMP:  42; 6HR MAX TEMP:  50;

MCENTIRE ANGB  PTSUNNY   47  22  35 N17G23    29.98F
6HR MIN TEMP:  39; 6HR MAX TEMP:  48;

ORANGEBURG     CLOUDY    47  23  38 N10G20    29.98F
6HR MIN TEMP:  39; 6HR MAX TEMP:  47;

SUMTER SHAW    CLOUDY    45  22  40 N16       29.94F
6HR MIN TEMP:  39; 6HR MAX TEMP:  45;

NEWBERRY       PTCLDY    52  25  35 N17G23    30.06F
AIKEN          MOCLDY    52  27  37 N16G24    30.05F
BARNWELL       MOCLDY    50  27  40 N14       30.01F
MANNING        LGT RAIN  41  27  56 N16G25    29.95F
CAMDEN         FAIR      46  46 100 N12G18    29.99F
LANCASTER      CLOUDY    46  19  34 N7G18     30.02F
WINNSBORO      CLOUDY    46  23  39 N9G21     30.01F


...EASTERN AND COASTAL SOUTH CAROLINA...

CITY           SKY/WX    TMP DP  RH WIND       PRES   REMARKS
MYRTLE BEACH   RAIN      39  28  65 N21G31    29.84F FOG     WCI  29
N MYRTLE BCH   RAIN      37  34  89 N16G32    29.80F WCI  28
6HR MIN TEMP:  37; 6HR MAX TEMP:  38; 6HR PCP:  0.32;

CONWAY         RAIN      36  34  93 N7G17     29.88S WCI  30
MARION         RAIN      36  34  93 N17G29    29.95S WCI  25
HARTSVILLE     CLOUDY    43  25  49 N10G16    29.97F
FLORENCE       LGT RAIN  40  29  64 N17       29.96F WCI  31
6HR MIN TEMP:  37; 6HR MAX TEMP:  41; 6HR PCP:  0.04;

DARLINGTON     CLOUDY    43  21  42 N12       29.98F
6HR MIN TEMP:  37; 6HR MAX TEMP:  43;

CHARLESTON APT LGT RAIN  42  32  67 N22G35    29.90F
6HR MIN TEMP:  40; 6HR MAX TEMP:  42; 6HR PCP:  0.06;

MOUNT PLEASANT CLOUDY    39  36  87 NW13G24   29.89F WCI  32
WALTERBORO     CLOUDY    46  27  46 N17       29.97F
BEAUFORT       CLOUDY    47  29  49 NW20      29.96F
6HR MIN TEMP:  40; 6HR MAX TEMP:  48; 6HR PCP:  0.01;



...EASTERN GEORGIA...

CITY           SKY/WX    TMP DP  RH WIND       PRES   REMARKS
AUGUSTA BUSH F SUNNY     55  24  30 N15G24    30.03F
6HR MIN TEMP:  40; 6HR MAX TEMP:  55;

AUGUSTA DANIEL SUNNY     54  23  30 N16G23    30.04F
6HR MIN TEMP:  40; 6HR MAX TEMP:  54;

THOMSON        SUNNY     56  30  37 N14G20    30.09F
6HR MIN TEMP:  36; 6HR MAX TEMP:  57;

WASHINGTON     FAIR      57  32  38 NE8       30.06F
CLAXTON        FAIR      53  33  46 NW14G21   30.03F
6HR MIN TEMP:  42; 6HR MAX TEMP:  53;

SYLVANIA       PTCLDY    53  31  43 N18G25    30.01F
6HR MIN TEMP:  41; 6HR MAX TEMP:  53;

STATESBORO     MOSUNNY   55  22  28 N18G24    30.01F
6HR MIN TEMP:  44; 6HR MAX TEMP:  55;

SAVANNAH       CLOUDY    48  28  46 NW20G25   29.98F
6HR MIN TEMP:  39; 6HR MAX TEMP:  48; 6HR PCP: TRACE;



...SOUTHERN NORTH CAROLINA...

CITY           SKY/WX    TMP DP  RH WIND       PRES   REMARKS
CHARLOTTE      CLOUDY    48  20  32 N12G20    30.04F
6HR MIN TEMP:  37; 6HR MAX TEMP:  48;

MONROE         PTSUNNY   46  20  35 N16       30.00F
6HR MIN TEMP:  38; 6HR MAX TEMP:  46;

WADESBORO      CLOUDY    45  19  34 N14       30.01F
6HR MIN TEMP:  40; 6HR MAX TEMP:  45;

ROCKINGHAM     CLOUDY    42  21  42 N9G16     29.99F
6HR MIN TEMP:  37; 6HR MAX TEMP:  42;

RUTHERFORDTON  SUNNY     54  21  27 NW9       30.04F
6HR MIN TEMP:  32; 6HR MAX TEMP:  54;

ASHEVILLE      SUNNY     46  19  34 N16G26    30.05F
6HR MIN TEMP:  29; 6HR MAX TEMP:  47;


$$



USA.gov is the U.S. government's official web portal to all federal, state and local government web resources and services.